OE2SWM Weather Reports


time (UTC)temp
C
wind
direction
speed
KPH
gust
KPH
rain 1hr
cm
rain 24hr
cm
rain mn
cm
humidity
%
barometer
mb
20260507115000 13 0 0.0 0.0 0.00 0.00 0.00 62 967.0
20260507114000 15 0 0.0 0.0 0.00 0.00 0.00 56 967.0
20260507113000 15 0 0.0 0.0 0.00 0.00 0.00 56 967.0
20260507112000 15 0 0.0 0.0 0.00 0.00 0.00 57 967.0
20260507111000 15 0 0.0 0.0 0.00 0.00 0.00 57 967.0
20260507110000 15 0 0.0 0.0 0.00 0.00 0.00 58 967.0
20260507105000 13 0 0.0 0.0 0.00 0.00 0.00 59 967.0
20260507104000 15 0 0.0 0.0 0.00 0.00 0.00 59 967.0
20260507103000 15 0 0.0 0.0 0.00 0.00 0.00 59 967.0
20260507102000 15 0 0.0 0.0 0.00 0.00 0.00 58 967.0
20260507101000 15 0 0.0 0.0 0.00 0.00 0.00 60 967.0
20260507100000 15 0 0.0 0.0 0.00 0.00 0.00 59 967.0
20260507095000 15 0 0.0 0.0 0.00 0.00 0.00 60 967.0
20260507094000 13 0 0.0 0.0 0.00 0.00 0.00 62 967.0
20260507093000 13 0 0.0 0.0 0.00 0.00 0.00 62 967.0
20260507092000 13 0 0.0 0.0 0.00 0.00 0.00 61 967.0
20260507091000 13 0 0.0 0.0 0.00 0.00 0.00 62 967.0
20260507090000 13 0 0.0 0.0 0.00 0.00 0.00 63 967.0
20260507085000 13 0 0.0 0.0 0.00 0.00 0.00 64 967.0
20260507084000 13 0 0.0 0.0 0.00 0.00 0.00 66 967.0
20260507083000 13 0 0.0 0.0 0.00 0.00 0.00 64 967.0
20260507082000 13 0 0.0 0.0 0.00 0.00 0.00 65 967.0
20260507081000 13 0 0.0 0.0 0.00 0.00 0.00 62 967.0
20260507080000 13 0 0.0 0.0 0.00 0.00 0.00 63 967.0
20260507075000 13 0 0.0 0.0 0.00 0.00 0.00 64 967.0
20260507074000 13 0 0.0 0.0 0.00 0.00 0.00 65 967.0
20260507073000 12 0 0.0 0.0 0.00 0.00 0.00 68 967.0
20260507072000 11 0 0.0 0.0 0.00 0.00 0.00 69 967.0
20260507071000 11 0 0.0 0.0 0.00 0.00 0.00 70 967.0
20260507070000 11 0 0.0 0.0 0.00 0.00 0.00 71 967.0
20260507065000 11 0 0.0 0.0 0.00 0.00 0.00 72 967.0
20260507064000 11 0 0.0 0.0 0.00 0.00 0.00 74 967.0
20260507063000 11 0 0.0 0.0 0.00 0.00 0.00 74 967.0
20260507062000 11 0 0.0 0.0 0.00 0.00 0.00 75 967.0
20260507061000 11 0 0.0 0.0 0.00 0.00 0.00 75 967.0
20260507060000 11 0 0.0 0.0 0.00 0.00 0.00 76 967.0
20260507055000 11 0 0.0 0.0 0.00 0.00 0.00 74 967.0
20260507054000 12 0 0.0 0.0 0.00 0.00 0.00 69 967.0
20260507053000 16 0 0.0 0.0 0.00 0.00 0.00 58 967.0
20260507052000 18 0 0.0 0.0 0.00 0.00 0.00 56 967.0
20260507051000 13 0 0.0 0.0 0.00 0.00 0.00 73 967.0
20260507050000 10 0 0.0 0.0 0.00 0.00 0.00 80 967.0
20260507045000 8 0 0.0 0.0 0.00 0.00 0.00 84 967.0
20260507044000 6 0 0.0 0.0 0.00 0.00 0.00 89 967.0
20260507043000 6 0 0.0 0.0 0.00 0.00 0.00 89 967.0
20260507042000 6 0 0.0 0.0 0.00 0.00 0.00 90 967.0
20260507041000 6 0 0.0 0.0 0.00 0.00 0.00 92 967.0
20260507040000 6 0 0.0 0.0 0.00 0.00 0.00 88 967.0
20260507035000 6 0 0.0 0.0 0.00 0.00 0.00 89 967.0
20260507034000 6 0 0.0 0.0 0.00 0.00 0.00 89 967.0
20260507033000 6 0 0.0 0.0 0.00 0.00 0.00 90 967.0
20260507032000 6 0 0.0 0.0 0.00 0.00 0.00 89 967.0
20260507031000 6 0 0.0 0.0 0.00 0.00 0.00 91 967.0
20260507030000 5 0 0.0 0.0 0.00 0.00 0.00 90 966.0
20260507025000 5 0 0.0 0.0 0.00 0.00 0.00 91 966.0
20260507024000 5 0 0.0 0.0 0.00 0.00 0.00 91 966.0
20260507023000 5 0 0.0 0.0 0.00 0.00 0.00 91 966.0
20260507022000 5 0 0.0 0.0 0.00 0.00 0.00 93 966.0
20260507021000 5 0 0.0 0.0 0.00 0.00 0.00 91 966.0
20260507020000 5 0 0.0 0.0 0.00 0.00 0.00 92 966.0
20260507015000 5 0 0.0 0.0 0.00 0.00 0.00 92 966.0
20260507014000 5 0 0.0 0.0 0.00 0.00 0.00 94 966.0
20260507013000 5 0 0.0 0.0 0.00 0.00 0.00 90 966.0
20260507012000 5 0 0.0 0.0 0.00 0.00 0.00 94 966.0
20260507011000 5 0 0.0 0.0 0.00 0.00 0.00 91 966.0
20260507010000 5 0 0.0 0.0 0.00 0.00 0.00 89 966.0
20260507005000 5 0 0.0 0.0 0.00 0.00 0.00 90 966.0
20260507004000 5 0 0.0 0.0 0.00 0.00 0.00 92 966.0
20260507003000 5 0 0.0 0.0 0.00 0.00 0.00 90 966.0
20260507002000 5 0 0.0 0.0 0.00 0.00 0.00 87 966.0
20260507001000 5 0 0.0 0.0 0.00 0.00 0.00 90 966.0
20260507000000 6 0 0.0 0.0 0.00 0.00 0.00 88 966.0
20260506235000 6 0 0.0 0.0 0.00 0.00 0.00 85 966.0
20260506234000 6 0 0.0 0.0 0.00 0.00 0.00 87 966.0
20260506233000 6 0 0.0 0.0 0.00 0.00 0.00 87 966.0
20260506232000 7 0 0.0 0.0 0.00 0.00 0.00 89 966.0
20260506231000 7 0 0.0 0.0 0.00 0.00 0.00 88 966.0
20260506230000 7 0 0.0 0.0 0.00 0.00 0.00 87 966.0
20260506225000 7 0 0.0 0.0 0.00 0.00 0.00 85 966.0
20260506224000 8 0 0.0 0.0 0.00 0.00 0.00 84 966.0
20260506223000 8 0 0.0 0.0 0.00 0.00 0.00 86 966.0
20260506222000 8 0 0.0 0.0 0.00 0.00 0.00 82 966.0
20260506221000 10 0 0.0 0.0 0.00 0.00 0.00 81 965.0
20260506220000 10 0 0.0 0.0 0.00 0.00 0.00 81 965.0
20260506215000 10 0 0.0 0.0 0.00 0.00 0.00 78 965.0
20260506214000 10 0 0.0 0.0 0.00 0.00 0.00 78 965.0
20260506213000 10 0 0.0 0.0 0.00 0.00 0.00 78 965.0
20260506212000 10 0 0.0 0.0 0.00 0.00 0.00 78 965.0
20260506211000 10 0 0.0 0.0 0.00 0.00 0.00 79 965.0
20260506210000 10 0 0.0 0.0 0.00 0.00 0.00 78 964.0
20260506205000 11 0 0.0 0.0 0.00 0.00 0.00 77 964.0
20260506204000 11 0 0.0 0.0 0.00 0.00 0.00 77 964.0
20260506203000 11 0 0.0 0.0 0.00 0.00 0.00 75 964.0
20260506202000 11 0 0.0 0.0 0.00 0.00 0.00 73 964.0
20260506201000 11 0 0.0 0.0 0.00 0.00 0.00 72 964.0
20260506200000 12 0 0.0 0.0 0.00 0.00 0.00 70 964.0
20260506195000 12 0 0.0 0.0 0.00 0.00 0.00 69 964.0
20260506194000 12 0 0.0 0.0 0.00 0.00 0.00 68 964.0
20260506193000 13 0 0.0 0.0 0.00 0.00 0.00 64 964.0
20260506192000 13 0 0.0 0.0 0.00 0.00 0.00 64 964.0
20260506191000 13 0 0.0 0.0 0.00 0.00 0.00 64 964.0
20260506190000 13 0 0.0 0.0 0.00 0.00 0.00 64 964.0
20260506185000 13 0 0.0 0.0 0.00 0.00 0.00 64 964.0
20260506184000 13 0 0.0 0.0 0.00 0.00 0.00 63 963.0
20260506183000 13 0 0.0 0.0 0.00 0.00 0.00 63 963.0
20260506182000 13 0 0.0 0.0 0.00 0.00 0.00 63 963.0
20260506181000 13 0 0.0 0.0 0.00 0.00 0.00 63 963.0
20260506180000 13 0 0.0 0.0 0.00 0.00 0.00 64 963.0
20260506175000 13 0 0.0 0.0 0.00 0.00 0.00 64 963.0
20260506174000 15 0 0.0 0.0 0.00 0.00 0.00 63 963.0
20260506173000 15 0 0.0 0.0 0.00 0.00 0.00 62 963.0
20260506172000 15 0 0.0 0.0 0.00 0.00 0.00 61 963.0
20260506171000 15 0 0.0 0.0 0.00 0.00 0.00 59 963.0
20260506170000 15 0 0.0 0.0 0.00 0.00 0.00 58 963.0
20260506165000 16 0 0.0 0.0 0.00 0.00 0.00 56 963.0
20260506164000 15 0 0.0 0.0 0.00 0.00 0.00 57 962.0
20260506163000 16 0 0.0 0.0 0.00 0.00 0.00 57 962.0
20260506162000 17 0 0.0 0.0 0.00 0.00 0.00 55 962.0
20260506161000 17 0 0.0 0.0 0.00 0.00 0.00 54 962.0
20260506160000 16 0 0.0 0.0 0.00 0.00 0.00 56 963.0
20260506155000 16 0 0.0 0.0 0.00 0.00 0.00 56 963.0
20260506154000 16 0 0.0 0.0 0.00 0.00 0.00 55 963.0
20260506153000 16 0 0.0 0.0 0.00 0.00 0.00 55 963.0
20260506152000 16 0 0.0 0.0 0.00 0.00 0.00 55 963.0
20260506151000 16 0 0.0 0.0 0.00 0.00 0.00 55 963.0
20260506150000 16 0 0.0 0.0 0.00 0.00 0.00 55 962.0
20260506145000 16 0 0.0 0.0 0.00 0.00 0.00 55 963.0
20260506144000 16 0 0.0 0.0 0.00 0.00 0.00 55 963.0
20260506143000 16 0 0.0 0.0 0.00 0.00 0.00 55 963.0
20260506142000 17 0 0.0 0.0 0.00 0.00 0.00 55 963.0
20260506141000 17 0 0.0 0.0 0.00 0.00 0.00 54 963.0
20260506140000 17 0 0.0 0.0 0.00 0.00 0.00 54 963.0
20260506135000 18 0 0.0 0.0 0.00 0.00 0.00 53 963.0
20260506134000 18 0 0.0 0.0 0.00 0.00 0.00 52 963.0
20260506133000 18 0 0.0 0.0 0.00 0.00 0.00 52 963.0
20260506132000 17 0 0.0 0.0 0.00 0.00 0.00 52 963.0
20260506131000 17 0 0.0 0.0 0.00 0.00 0.00 52 963.0
20260506130000 17 0 0.0 0.0 0.00 0.00 0.00 53 963.0
20260506125000 17 0 0.0 0.0 0.00 0.00 0.00 52 963.0
20260506124000 17 0 0.0 0.0 0.00 0.00 0.00 53 963.0
20260506123000 17 0 0.0 0.0 0.00 0.00 0.00 52 963.0
20260506122000 18 0 0.0 0.0 0.00 0.00 0.00 51 963.0
20260506121000 17 0 0.0 0.0 0.00 0.00 0.00 52 963.0
20260506120000 17 0 0.0 0.0 0.00 0.00 0.00 52 963.0